Frederick, OK

9:49 AM CDT on September 19, 2017 (GMT -0500)
Frederick Municipal

Weather History for KFDR - March, 2013

Change the Weather History Date:

Thursday, March 14, 2013

  Actual Average (KLTS) Record (KLTS)
Temperature  
Mean Temperature 58 °F -  
Max Temperature 81 °F 61 °F 89 °F (2002)
Min Temperature 37 °F 38 °F 21 °F (2006)
Degree Days  
Heating Degree Days 6    
Growing Degree Days 8 (Base 50)    
Moisture  
Dew Point 37 °F    
Average Humidity 51    
Maximum Humidity 83    
Minimum Humidity 22    
Precipitation  
Precipitation 0.00 in - - ()
Sea Level Pressure  
Sea Level Pressure 30.16 in    
Wind  
Wind Speed 9 mph (SE)    
Max Wind Speed 16 mph    
Max Gust Speed 20 mph    
Visibility 10 miles    
Events      
Averages and records for this station are not official NWS values.
T = Trace of Precipitation, MM = Missing Value Source: NWS Daily Summary

Daily Weather History Graph

Daily Weather History Graph

Search for Another Location

Airport or City:

Trip Planner

Search our weather history database for the weather conditions in past years. The results will help you decide how hot, cold, wet, or windy it might be!

Date:

Astronomy

Mar. 14, 2013 Rise Set
Actual Time 7:47 AM CDT 7:43 PM CDT
Civil Twilight 7:22 AM CDT 8:08 PM CDT
Nautical Twilight 6:53 AM CDT 8:37 PM CDT
Astronomical Twilight 6:23 AM CDT 9:06 PM CDT
Moon 9:11 AM CDT (3/14) 10:50 PM CDT (3/14)
Length of Visible Light 12h 45m
Length of Day
11h 55m
Waxing Crescent, 9% of the Moon is Illuminated
Mar 14
Waxing Crescent
Mar 19
First Quarter
Mar 27
Full
Apr 2
Last Quarter
Apr 10
New

Hourly Weather History & Observations

Time (CDT) Temp. Windchill Dew Point Humidity Pressure Visibility Wind Dir Wind Speed Gust Speed Precip Events Conditions
12:53 AM 46.9 °F - 35.1 °F 63% 30.24 in 10.0 mi ESE 6.9 mph - N/A   Clear
1:53 AM 45.0 °F 41.2 °F 34.0 °F 65% 30.24 in 10.0 mi East 6.9 mph - N/A   Clear
2:53 AM 42.1 °F 36.6 °F 34.0 °F 73% 30.23 in 10.0 mi ENE 9.2 mph - N/A   Clear
3:53 AM 41.0 °F 35.2 °F 34.0 °F 76% 30.22 in 10.0 mi ENE 9.2 mph - N/A   Clear
4:53 AM 39.9 °F 34.5 °F 34.0 °F 79% 30.20 in 10.0 mi ENE 8.1 mph - N/A   Clear
5:53 AM 39.9 °F 33.9 °F 34.0 °F 79% 30.20 in 10.0 mi ENE 9.2 mph - N/A   Clear
6:53 AM 37.9 °F 31.5 °F 33.1 °F 83% 30.21 in 10.0 mi ENE 9.2 mph - N/A   Clear
7:53 AM 39.0 °F 32.8 °F 33.1 °F 79% 30.23 in 10.0 mi East 9.2 mph - N/A   Clear
8:53 AM 43.0 °F 39.5 °F 36.0 °F 76% 30.24 in 10.0 mi East 5.8 mph - N/A   Clear
9:53 AM 52.0 °F - 37.9 °F 59% 30.24 in 10.0 mi South 9.2 mph - N/A   Clear
10:53 AM 59.0 °F - 39.0 °F 48% 30.23 in 10.0 mi SSW 8.1 mph - N/A   Clear
11:53 AM 66.9 °F - 37.9 °F 34% 30.21 in 10.0 mi SSW 12.7 mph - N/A   Clear
12:53 PM 72.0 °F - 37.9 °F 29% 30.18 in 10.0 mi SW 13.8 mph 19.6 mph N/A   Clear
1:53 PM 75.0 °F - 39.0 °F 27% 30.16 in 10.0 mi South 9.2 mph - N/A   Clear
2:53 PM 78.1 °F - 39.0 °F 25% 30.13 in 10.0 mi SSW 11.5 mph - N/A   Clear
3:53 PM 80.1 °F - 39.0 °F 23% 30.10 in 10.0 mi South 10.4 mph 18.4 mph N/A   Clear
4:53 PM 79.0 °F - 39.9 °F 25% 30.09 in 10.0 mi SSE 8.1 mph - N/A   Clear
5:53 PM 80.1 °F - 37.9 °F 22% 30.06 in 10.0 mi SSE 16.1 mph - N/A   Clear
6:53 PM 77.0 °F - 39.0 °F 25% 30.05 in 10.0 mi SSE 15.0 mph - N/A   Clear
7:53 PM 66.0 °F - 39.9 °F 38% 30.06 in 10.0 mi SE 10.4 mph - N/A   Clear
8:53 PM 61.0 °F - 37.9 °F 42% 30.06 in 10.0 mi SE 10.4 mph - N/A   Clear
9:53 PM 57.9 °F - 37.9 °F 47% 30.06 in 10.0 mi SE 10.4 mph - N/A   Clear
10:53 PM 57.0 °F - 37.9 °F 49% 30.06 in 10.0 mi SE 10.4 mph - N/A   Clear
11:53 PM 54.0 °F - 37.9 °F 55% 30.06 in 10.0 mi SE 8.1 mph - N/A   Clear